Probability
0 0 0 0 0 0 0 0 0 0 0 0 1 3 7 19 36 50 51 37 19 6 1 0 0 0 0 0 0 0 0 0 0 0 0 0 0 0 0 0 0 0 0 0
0 0 0 0 0 0 0 0 0 0 0 1 3 5 12 24 40 51 48 32 15 5 1 0 0 0 0 0 0 0 0 0 0 0 0 0 0 0 0 0 0 0 0 0
0 0 0 0 0 0 0 0 0 1 2 3 6 10 17 27 38 46 38 20 8 2 0 0 0 0 0 0 0 0 0 0 0 0 0 0 0 0 0 0 0 0 0 0
0 0 0 0 0 0 0 0 0 2 3 4 7 10 14 20 27 30 23 10 2 1 0 0 0 0 0 0 0 0 0 0 0 0 0 0 0 0 0 0 0 0 0 0
0 0 0 0 0 0 0 0 0 1 1 2 4 4 5 8 12 13 9 3 0 0 0 0 0 0 0 0 0 0 0 0 0 0 0 0 0 0 0 0 0 0 0 0
0 0 0 0 0 0 0 0 0 0 0 0 0 0 0 2 3 3 2 0 0 0 0 0 0 0 0 0 0 0 0 0 0 0 0 0 0 0 0 0 0 0 0 0
0 0 0 0 0 0 0 0 0 0 0 0 0 0 0 0 0 0 0 0 0 0 0 0 0 0 0 0 0 0 0 0 0 0 0 0 0 0 0 0 0 0 0 0
0 0 0 0 0 0 0 0 0 0 0 0 0 0 0 0 0 0 0 0 0 0 0 0 0 0 0 0 0 0 0 0 0 0 0 0 0 0 0 0 0 0 0 0
0 0 0 0 0 0 0 0 0 0 0 0 0 0 0 0 0 0 0 0 0 0 0 0 0 0 0 0 0 0 0 0 0 0 0 0 0 0 0 0 0 0 0 0
0 0 0 0 0 0 0 0 0 0 0 0 0 0 0 0 0 0 0 0 0 0 0 0 0 0 0 0 0 0 0 0 0 0 0 0 0 0 0 0 0 0 0 0
0 0 0 0 0 0 0 0 0 0 0 0 0 0 0 0 0 0 0 0 0 0 0 0 0 0 0 0 0 0 0 0 0 0 0 0 0 0 0 0 0 0 0 0
0 0 0 0 0 0 0 0 0 0 0 0 0 0 0 0 0 0 0 0 0 0 0 0 0 0 0 0 0 0 0 0 0 0 0 0 0 0 0 0 0 0 0 0
0 0 0 0 0 0 0 0 0 0 0 0 0 0 0 0 0 0 0 0 0 0 0 0 0 0 0 0 0 0 0 0 0 0 0 0 0 0 0 0 0 0 0 0
0 0 0 0 0 0 0 0 0 0 0 0 0 0 0 0 0 0 0 0 0 0 0 0 0 0 0 0 0 0 0 0 0 0 0 0 0 0 0 0 0 0 0 0
0 0 0 0 0 0 0 0 0 0 0 0 0 0 0 0 0 0 0 0 0 0 0 0 0 0 0 0 0 0 0 0 0 0 0 0 0 0 0 0 0 0 0 0
0 0 0 0 0 0 0 0 0 0 0 0 0 0 0 0 0 0 0 0 0 0 0 0 0 0 0 0 0 0 0 0 0 0 0 0 0 0 0 0 0 0 0 0
0 0 0 0 0 0 0 0 0 0 0 0 0 0 0 0 0 0 0 0 0 0 0 0 0 0 0 0 0 0 0 0 0 0 0 0 0 0 0 0 0 0 0 0
0 0 0 0 0 0 0 0 0 0 0 0 0 0 0 0 0 0 0 0 0 0 0 0 0 0 0 0 0 0 0 0 0 0 0 0 0 0 0 0 0 0 0 0
0 0 0 0 0 0 0 0 0 0 0 0 0 0 0 0 0 0 0 0 0 0 0 0 0 0 0 0 0 0 0 0 0 0 0 0 0 0 0 0 0 0 0 0
0 0 0 0 0 0 0 0 0 0 0 0 0 0 0 0 0 0 0 0 0 0 0 0 0 0 0 0 0 0 0 0 0 0 0 0 0 0 0 0 0 0 0 0
0 0 0 0 0 0 0 0 0 0 0 0 0 0 0 0 0 0 0 0 0 0 0 0 0 0 0 0 0 0 0 0 0 0 0 0 0 0 0 0 0 0 0 0
0 0 0 0 0 0 0 0 0 0 0 0 0 0 0 0 0 0 0 0 0 0 0 0 0 0 0 0 0 0 0 0 0 0 0 0 0 0 0 0 0 0 0 0
0 0 0 0 0 0 0 0 0 0 0 0 0 0 0 0 0 0 0 0 0 0 0 0 0 0 0 0 0 0 0 0 0 0 0 0 0 0 0 0 0 0 0 0
0 0 0 0 0 0 0 0 0 0 0 0 0 0 0 0 0 0 0 0 0 0 0 0 0 0 0 0 0 0 0 0 0 0 0 0 0 0 0 0 0 0 0 0
0 0 0 0 0 0 0 0 0 0 0 0 0 0 0 0 0 0 0 0 0 0 0 0 0 0 0 0 0 0 0 0 0 0 0 0 0 0 0 0 0 0 0 0
0 0 0 0 0 0 0 0 0 0 0 0 0 0 0 0 0 0 0 0 0 0 0 0 0 0 0 0 0 0 0 0 0 0 0 0 0 0 0 0 0 0 0 0
0 0 0 0 0 0 0 0 0 0 0 0 0 0 0 0 0 0 0 0 0 0 0 0 0 0 0 0 0 0 0 0 0 0 0 0 0 0 0 0 0 0 0 0
Wind_Speed
11 10 11 12 13 13 14 15 17 18 18 15 13 13 12 9 6 9 13 14 15 14 13 13 12 12 11 10 8 7 5 3 1 1 2 4 5 6 7 8 9 9 9 10
12 12 13 17 17 18 18 18 20 21 20 14 11 11 10 9 7 10 12 13 13 13 13 12 11 11 10 9 8 5 3 1 1 2 3 4 5 6 7 8 8 8 8 9
12 8 10 15 12 13 14 14 15 16 13 13 13 11 10 9 6 6 9 12 12 12 11 10 9 9 9 8 6 4 1 1 1 3 4 5 6 6 6 7 7 6 7 7
8 6 11 2 7 6 8 6 7 9 11 11 10 8 9 9 3 3 10 12 13 12 12 11 10 9 8 7 4 2 1 1 2 4 5 5 5 6 6 5 5 6 6 8
7 9 8 2 6 8 7 5 8 10 11 10 7 3 8 12 10 11 14 14 14 14 14 11 9 8 7 5 3 1 1 2 4 5 5 5 6 5 5 5 6 6 6 8
7 7 6 5 8 8 8 7 10 12 12 10 8 4 6 10 14 16 16 15 15 14 13 11 8 6 5 4 3 2 4 5 5 5 6 6 5 5 5 5 6 7 8 8
9 8 5 8 10 10 8 5 13 13 11 9 6 7 9 13 15 16 16 16 14 13 10 9 7 5 4 4 4 5 5 6 6 6 5 5 5 5 6 6 7 7 8 8
6 7 2 10 10 8 11 14 13 10 6 6 10 12 14 14 15 16 15 14 13 11 10 8 6 5 5 6 5 5 6 6 6 5 4 5 5 5 6 7 7 7 8 8
4 4 7 9 9 10 10 10 7 4 4 10 13 14 15 15 14 14 13 12 11 11 10 7 5 4 6 6 5 6 6 6 5 5 5 5 5 6 6 6 7 7 8 8
6 3 6 8 8 8 6 4 4 6 9 13 15 15 15 13 13 12 12 11 10 10 9 7 6 7 7 6 5 5 5 5 4 4 5 5 5 6 6 7 7 7 8 8
5 3 3 5 7 6 6 8 10 12 13 15 16 15 14 13 13 11 11 10 8 8 9 9 8 8 7 6 5 5 5 4 4 5 5 4 5 6 7 7 7 7 7 8
2 3 2 3 5 7 9 11 12 14 15 14 14 15 14 13 12 11 10 9 9 9 9 9 9 8 7 6 5 5 5 5 4 5 5 5 5 4 2 3 2 4 6 8
2 4 5 6 7 9 10 12 12 13 15 15 14 14 14 13 11 11 10 9 9 9 9 9 9 9 8 7 7 7 7 6 5 6 6 6 6 6 5 2 1 2 5 10
6 6 7 7 9 9 11 12 13 14 14 14 13 13 13 12 11 10 10 9 9 9 9 9 10 9 8 8 7 7 7 6 6 6 6 6 6 6 6 7 7 7 6 9
6 6 8 9 9 9 10 11 13 13 13 13 13 12 12 12 11 11 10 9 9 10 10 10 10 9 8 8 8 8 8 7 6 6 6 6 6 6 6 7 7 7 8 9
7 8 8 8 9 9 10 11 12 13 13 13 12 12 12 11 11 10 9 9 9 10 9 9 10 9 7 7 6 7 7 6 7 6 6 6 6 6 6 6 7 7 7 9
8 8 8 8 9 9 10 11 12 12 13 13 13 12 12 11 11 10 10 10 10 10 9 9 9 7 7 6 5 5 5 5 1 6 7 7 7 7 7 6 7 6 7 9
6 7 7 8 9 11 11 12 12 13 13 13 12 11 11 11 10 10 10 10 10 10 9 8 7 7 7 7 6 5 6 6 7 8 7 8 7 7 7 7 7 8 7 8
8 9 10 10 11 11 12 12 13 13 13 12 11 11 11 10 10 9 9 9 10 9 8 8 3 5 7 6 5 4 6 7 7 7 7 6 7 8 7 7 7 7 8 8
11 11 12 12 12 12 12 12 13 12 11 11 12 11 11 10 9 9 9 9 8 8 7 6 5 6 6 5 7 5 7 7 8 7 7 7 8 8 8 8 8 8 7 7
12 12 12 12 12 12 12 12 12 12 11 11 11 11 10 9 8 8 8 9 8 7 7 3 3 5 5 3 3 6 7 7 8 8 8 8 8 8 8 8 8 8 8 8
12 12 12 12 12 12 11 11 11 11 10 10 11 11 10 9 9 8 9 7 7 3 4 5 7 7 4 5 6 8 8 8 8 7 8 8 8 8 8 8 8 8 8 8
11 12 12 12 12 12 11 11 11 10 10 10 10 9 9 8 7 7 8 7 7 3 5 8 7 2 7 3 7 7 8 8 8 8 8 7 7 7 8 8 8 8 8 8
12 12 12 12 12 12 11 11 10 8 9 9 9 9 8 7 6 7 9 8 6 5 8 8 3 2 6 5 7 8 8 8 8 8 8 7 7 7 7 7 7 7 8 9
12 12 12 13 12 10 11 11 10 9 9 8 9 8 6 6 7 8 8 10 8 7 9 6 3 5 1 7 7 8 9 8 8 8 8 7 8 7 7 7 8 7 8 8
12 11 10 10 8 8 9 9 8 8 8 8 7 7 6 7 9 8 8 9 9 8 8 7 5 2 6 7 8 8 7 7 7 7 8 7 8 8 8 8 9 7 7 8
12 10 9 8 8 8 8 8 8 8 8 8 8 7 7 8 8 8 9 8 8 6 6 5 5 5 6 7 7 7 7 7 7 7 7 7 7 7 7 8 7 7 7 8
Wind_Direction
275 289 285 279 274 270 267 272 278 283 288 296 311 314 310 292 244 190 178 174 170 165 159 154 150 141 133 127 117 109 109 113 128 223 271 280 286 287 288 288 290 294 297 299
265 264 272 273 270 269 268 270 273 276 279 300 319 316 306 291 250 206 185 172 163 157 150 146 141 133 124 113 104 99 104 157 186 291 286 288 289 291 294 298 304 311 314 319
266 267 278 264 271 274 275 276 282 287 310 335 325 325 322 310 276 216 174 155 147 141 134 126 121 116 108 101 99 105 151 228 293 299 303 305 307 312 323 331 338 341 340 336
267 250 248 74 44 349 307 300 335 337 343 341 339 347 358 345 320 149 135 130 125 118 109 104 103 100 98 99 109 137 181 310 325 322 322 333 343 2 7 4 358 350 342 338
252 251 259 175 51 359 320 297 24 358 349 349 350 342 39 28 52 89 104 106 104 105 105 104 101 101 101 103 121 130 40 8 7 359 1 17 32 31 19 4 357 341 347 341
238 256 260 80 24 337 284 250 36 359 347 344 334 324 58 61 78 86 90 95 100 101 102 102 103 105 104 110 106 67 45 40 41 43 44 48 43 25 18 1 356 344 354 344
241 247 269 44 351 318 267 351 358 346 343 346 14 55 89 88 87 91 94 96 98 99 98 100 104 106 107 101 79 66 69 72 68 67 64 52 39 26 9 3 2 355 352 345
243 246 252 26 347 334 327 329 326 334 352 64 90 95 95 94 95 96 96 96 99 100 99 100 107 117 105 86 82 86 88 85 74 57 43 48 34 24 18 0 1 2 354 348
287 312 4 353 332 320 313 309 321 351 74 108 107 103 100 98 97 97 100 103 106 108 107 109 113 106 91 88 93 97 95 85 74 63 48 31 18 24 20 12 5 1 354 349
277 298 354 355 353 358 0 13 52 89 106 110 108 108 107 107 106 107 110 112 116 119 118 114 102 86 84 91 97 99 91 83 70 51 49 48 22 27 23 14 7 1 355 347
267 314 13 27 26 38 62 80 90 97 105 110 113 112 112 111 111 113 117 123 127 120 111 103 96 90 90 95 98 92 82 67 54 51 45 42 51 38 22 38 16 352 352 343
329 25 37 59 59 76 88 91 97 101 101 103 107 111 113 114 118 122 124 125 119 112 108 103 98 90 85 84 80 77 74 56 46 45 39 33 39 74 96 32 4 336 346 346
72 95 100 102 87 83 88 95 101 103 105 107 109 112 114 117 120 121 121 118 113 109 106 102 95 86 81 75 72 67 58 40 39 35 36 34 28 20 24 38 294 337 6 1
127 125 116 106 93 92 97 103 105 104 105 109 115 118 119 120 120 116 112 111 110 108 104 100 93 86 83 80 75 69 68 57 31 42 34 31 27 25 24 14 10 8 19 15
124 114 110 106 104 107 113 117 115 112 114 117 120 121 121 118 111 107 108 110 109 105 101 98 93 86 82 79 72 56 44 39 35 36 35 36 31 32 31 26 18 8 7 7
123 117 119 118 116 121 128 127 122 120 122 123 122 119 115 110 108 108 109 109 106 99 98 97 92 88 84 82 84 83 75 32 356 27 37 36 34 34 31 26 25 17 14 8
142 137 133 127 125 125 125 125 125 126 126 124 121 119 117 114 110 104 99 94 93 95 97 97 94 91 83 67 51 61 67 79 349 30 39 33 35 35 35 28 26 21 19 16
135 122 122 125 125 125 125 126 127 126 124 124 125 124 120 115 109 106 105 106 102 96 93 97 95 90 75 59 40 35 43 41 39 38 42 33 29 41 39 33 29 24 15 16
119 114 115 119 124 127 128 128 127 125 126 128 126 118 113 111 111 112 113 112 110 104 98 96 82 88 77 51 346 53 39 39 43 41 42 49 42 47 46 40 33 27 23 18
125 120 121 123 125 125 124 124 125 124 124 122 121 120 118 116 115 112 105 91 78 90 109 114 123 84 79 51 325 38 42 39 43 43 41 42 42 43 43 43 39 32 27 24
132 128 127 127 127 128 128 130 130 128 127 126 124 122 120 120 120 120 117 104 96 100 112 137 99 81 66 35 327 43 44 41 43 44 39 40 42 44 42 40 38 34 29 27
137 134 133 132 133 132 133 134 134 132 129 124 122 122 124 124 118 103 87 94 111 136 138 108 82 62 21 325 52 50 47 43 44 47 45 39 39 41 42 40 39 34 31 29
141 139 139 140 138 136 137 138 137 134 131 128 128 132 129 124 126 125 116 112 122 136 92 80 88 89 299 22 59 56 51 46 45 46 48 44 41 39 38 38 38 36 33 29
145 144 142 142 141 143 145 143 139 135 130 123 121 124 128 127 113 100 101 101 97 109 95 99 121 271 286 61 58 54 50 45 45 46 45 46 46 43 38 35 35 36 36 35
149 147 146 149 152 151 146 145 142 141 135 122 124 131 133 125 120 114 116 120 134 130 114 125 192 273 38 64 62 61 57 45 33 35 47 42 41 43 39 36 33 34 34 32
153 153 153 159 154 152 155 158 158 155 147 139 133 128 121 118 123 127 129 131 131 132 130 136 141 160 78 73 66 60 61 66 60 52 46 43 43 43 38 34 38 37 38 35
153 149 152 155 156 161 163 164 159 157 154 147 137 133 134 136 137 137 136 137 141 133 123 121 109 94 84 78 72 67 62 58 52 49 49 46 43 40 39 40 40 39 41 42